#timestamp,LO_Frequency,Hit,StdDev 
1530982815.6,286047001.2,N
1530982835.4,286046998.6,N
1530982855.2,286047001.1,N
1530982875.1,286047001.2,N
1530982876.0,286047001.2,N
1530982895.8,286046998.3,N
1530982915.6,286046999.0,N
1530982935.5,286046999.0,N
1530982955.3,286046998.8,N
1530982975.2,286046998.7,N
1530982995.9,286046999.3,N
1530983015.7,286046999.0,N
1530983035.7,286046999.4,N
1530983055.5,286046998.9,N
1530983075.4,286046998.9,N
1530983095.2,286046999.2,N
1530983115.1,286046999.3,N
1530983116.0,286046999.3,N
1530983135.8,286046999.3,N
1530983155.6,286046999.0,N
1530983175.5,286046998.9,N
1530983195.3,286046999.1,N
1530983215.1,286046998.6,N
1530983235.9,286046999.2,N
1530983255.7,286046996.5,Y
1530983275.6,286046996.9,P
1530983295.4,286046998.1,N
1530983315.2,286046999.5,N
1530983335.1,286046997.1,N
1530983336.0,286046997.1,N
1530983355.8,286046999.0,N
1530983375.7,286046999.1,N
1530983395.5,286046998.9,N
1530983415.3,286046999.0,N
1530983435.2,286046999.0,N
1530983455.9,286046998.9,N
1530983475.7,286046997.3,Y
1530983495.6,286046998.8,P
1530983515.4,286046998.1,P
1530983535.3,286046998.1,P
1530983555.1,286047001.2,Y
1530983556.0,286047001.2,P
1530983575.8,286047001.6,N
1530983595.7,286047001.8,N
1530983615.5,286047002.3,N
1530983635.3,286046999.9,N
1530983655.2,286047000.0,N
1530983675.0,286047000.9,N
1530983675.9,286047000.9,N
1530983695.8,286047001.2,N
1530983715.6,286047000.5,N
1530983735.4,286047000.5,N
1530983755.3,286047000.2,N
1530983775.1,286047000.5,N
1530983795.8,286046999.7,N
1530983815.7,286047002.2,N
1530983835.5,286047001.9,N
1530983855.4,286047001.8,N
1530983875.2,286047001.3,N
1530983895.0,286047004.0,Y
1530983895.9,286047004.0,P
1530983915.8,286047000.6,N
1530983935.6,286047000.9,N
1530983955.5,286047001.0,N
1530983975.3,286047001.1,N
1530983995.1,286047000.8,N
1530984015.9,286046998.6,N
1530984035.7,286046998.2,N
1530984055.5,286046998.7,N
1530984075.4,286046998.4,N
1530984095.2,286046999.1,N
1530984115.0,286046998.7,N
1530984116.0,286046998.7,N
1530984135.8,286046996.5,N
1530984155.6,286046998.4,N
1530984175.5,286046998.4,N
1530984195.3,286046998.3,N
1530984215.1,286046998.7,N
1530984235.9,286046999.4,N
1530984255.7,286046999.6,N
1530984275.5,286046999.2,N
1530984295.4,286046999.3,N
1530984315.2,286046997.9,N
1530984335.1,286046997.3,N
1530984336.0,286046997.3,N
1530984355.8,286046997.8,N
1530984375.6,286046996.7,N
1530984395.6,286046996.6,N
1530984415.5,286046999.3,N
1530984435.3,286047000.8,N
1530984455.1,286047000.9,N
1530984475.9,286046998.3,N
1530984495.7,286047000.7,N
1530984515.5,286046998.9,N
1530984535.4,286046998.9,N
1530984555.2,286046996.7,N
1530984575.1,286046997.3,N
1530984576.0,286046997.3,N
1530984595.8,286046997.1,N
1530984615.6,286046996.8,N
1530984635.5,286046997.4,N
1530984655.3,286046999.0,N
1530984675.1,286046997.0,N
1530984695.9,286046998.7,N
1530984715.7,286046999.3,N
1530984735.6,286046996.6,N
1530984755.4,286046999.2,N
1530984775.2,286046999.5,N
1530984795.1,286046996.8,N
1530984796.0,286046996.8,N
1530984815.8,286046998.8,N
1530984835.7,286046997.3,N
1530984855.5,286046997.7,N
1530984875.3,286046997.6,N
1530984895.2,286046997.5,N
1530984915.9,286046998.0,N
1530984935.7,286046996.4,N
1530984955.6,286046996.2,N
1530984975.4,286046997.7,N
1530984995.3,286046998.0,N
1530985015.1,286046997.8,N
1530985016.0,286046997.8,N
1530985035.8,286046997.0,N
1530985055.7,286046997.7,N
1530985075.5,286046997.5,N
1530985095.3,286046997.5,N
1530985115.2,286046996.8,Y
1530985135.0,286046998.3,P
1530985135.9,286046998.3,P
1530985155.8,286047000.8,N
1530985175.6,286046998.2,N
1530985195.4,286046998.2,N
1530985215.3,286047000.3,N
1530985235.1,286047000.3,N
1530985255.8,286047000.7,N
1530985275.7,286046998.7,N
1530985295.5,286046999.6,N
1530985315.4,286046999.4,N
1530985335.2,286046998.9,N
1530985355.0,286047001.2,N
1530985355.9,286047001.2,N
1530985375.8,286046998.9,N
1530985395.6,286046999.1,N
1530985415.2,286047001.0,N
1530985435.1,286047000.6,N
1530985436.0,286047000.6,N
1530985455.8,286047000.9,N
1530985475.6,286047000.9,N
1530985495.5,286047001.2,N
1530985515.3,286046998.6,N
1530985535.1,286047001.2,N
1530985555.9,286046999.4,N
1530985575.7,286046998.8,N
1530985595.6,286046998.3,N
1530985615.4,286047000.7,N
1530985635.2,286047000.0,N
1530985655.1,286047001.0,N
1530985656.0,286047001.0,N
1530985675.8,286047001.1,N
1530985695.6,286046998.6,N
1530985715.5,286046998.6,N
1530985735.3,286046999.4,N
1530985755.2,286046996.5,Y
1530985775.0,286046999.4,P
1530985775.9,286046999.4,N
1530985795.7,286047001.1,P
1530985815.6,286047001.0,N
1530985835.4,286047000.7,N
1530985855.3,286047000.6,N
1530985875.1,286047000.5,N
1530985876.0,286047000.5,N
1530985895.8,286047000.6,N
1530985915.7,286047001.0,N
1530985935.5,286046999.7,N
1530985955.4,286047001.0,N
1530985975.2,286047000.2,N
1530985995.0,286047002.6,Y
1530985995.9,286047002.6,P
1530986015.8,286047002.7,N
1530986065.7,286047002.6,E
1530986075.6,286046999.8,N
1530986095.4,286046998.5,P
1530986115.3,286046998.5,N
1530986135.1,286046998.6,N
1530986136.0,286046998.6,N
1530986155.8,286046998.8,N
1530986175.7,286046998.1,Y
1530986195.5,286047000.8,P
1530986215.3,286047001.1,N
1530986235.2,286047000.4,N
1530986255.0,286047000.7,N
1530986255.9,286047000.7,N
1530986275.8,286047000.4,N
1530986295.6,286046999.7,N
1530986315.4,286047002.6,Y
1530986335.3,286046999.8,P
1530986355.1,286047002.8,P
1530986375.8,286047002.0,N
1530986395.7,286046999.8,N
